Location: Biberach+an+der+Riss
(48.0937°N, 9.7888°E)
Time: 14:33:15
(UTC+01:00)

ISS - Pass Details

Date: 11 January 2018
Orbit: 402 x 406 km, 51.6° (Epoch: 16 January)

Event Time Altitude Azimuth Distance (km) Brightness Sun altitude
Exits shadow 07:15:03 12° 280° (W) 1,368 -1.8 -8.7°
Maximum altitude 07:17:49 35° 215° (SW) 679 -2.8 -8.3°
Drops below altitude 10° 07:20:50 10° 147° (SSE) 1,460 0.0 -7.8°
Sets 07:23:00 0° 138° (SE) 2,317 1.4 -7.5°
